time_stamp(utc),avg(mph),gust(mph),direction(deg),12m_air_temp(f),sonic_u(cm/s),sonic_v(cm/s),sonic_w(cm/s),pressure,2m_air_temp(f),pyranometer(W/m^2)
"2018-09-07 00:02:07+00",10.3,11.3,,81.4,-273,-432,-29,1018.71,81,0
"2018-09-07 00:07:07+00",9.9,10.9,,81.4,-319,-333,-79,1018.79,81,0
"2018-09-07 00:12:07+00",10.7,12.7,,81.3,-305,-368,-92,1018.9,80.9,0
"2018-09-07 00:17:07+00",9.2,11.2,,81.4,-305,-330,-80,1019.02,80.8,0
"2018-09-07 00:22:07+00",11.4,13.4,,81.2,-279,-421,-56,1019.16,80.7,0
"2018-09-07 00:27:07+00",10.1,12.1,,81.2,-313,-371,-71,1019.31,80.7,0
"2018-09-07 00:32:07+00",9.6,12.6,,81.1,-302,-344,-58,1019.33,80.7,0
"2018-09-07 00:37:07+00",10.8,12.8,,81.1,-337,-411,-76,1019.38,80.7,0
"2018-09-07 00:42:07+00",10.4,12.4,,81,-297,-384,-65,1019.38,80.6,0
"2018-09-07 00:47:07+00",10.5,12.5,,81,-287,-377,-76,1019.36,80.5,0
"2018-09-07 00:52:07+00",9.3,10.3,,80.9,-244,-374,-73,1019.39,80.4,0
"2018-09-07 00:57:07+00",7.6,8.6,,80.8,-250,-294,-46,1019.52,80.4,0
"2018-09-07 01:02:07+00",8.3,10.3,,80.8,-312,-314,-98,1019.53,80.3,0
"2018-09-07 01:07:07+00",8.3,10.3,,80.8,-288,-320,-76,1019.43,80.3,0
"2018-09-07 01:12:07+00",9.1,12.1,,80.9,-334,-334,-80,1019.49,80.3,0
"2018-09-07 01:17:07+00",7.9,9.9,,80.9,-230,-334,-79,1019.44,80.3,0
"2018-09-07 01:22:07+00",6.5,7.5,,80.9,-240,-282,-62,1019.48,80.3,0
"2018-09-07 01:27:07+00",5.9,6.9,,80.8,-256,-230,-70,1019.47,80.3,0
"2018-09-07 01:32:07+00",6.1,7.1,,80.8,-252,-259,-51,1019.48,80.2,0
"2018-09-07 01:37:07+00",7.1,9.1,,80.7,-290,-305,-60,1019.43,80.3,0
"2018-09-07 01:42:07+00",9.9,11.9,,80.7,-373,-296,-38,1019.43,80.2,0
"2018-09-07 01:47:07+00",9.9,11.9,,80.8,-351,-277,-53,1019.45,80.3,0
"2018-09-07 01:52:07+00",8.3,12.3,,80.8,-317,-291,-69,1019.5,80.3,0
"2018-09-07 01:57:07+00",9.8,10.8,,81,-341,-221,-75,1019.55,80.4,0
"2018-09-07 02:02:07+00",7.1,9.1,,80.9,-276,-103,-26,1019.69,80.5,0
"2018-09-07 02:07:07+00",13.6,14.6,,81.1,-487,360,-4,1020.06,80.7,0
"2018-09-07 02:12:07+00",7.8,12.8,,81.2,-168,242,-41,1020.06,80.7,0
"2018-09-07 02:17:07+00",6.7,8.7,,81.2,-111,219,-59,1020.03,80.7,0
"2018-09-07 02:22:07+00",3.7,4.7,,81.1,-16,106,-30,1020,80.7,0
"2018-09-07 02:27:07+00",6.3,6.3,,81,-117,178,-64,1019.87,80.6,0
"2018-09-07 02:32:07+00",4.4,5.4,,81,-78,114,-44,1019.89,80.5,0
"2018-09-07 02:37:07+00",4.0,6.0,,81,-102,97,-46,1019.87,80.4,0
"2018-09-07 02:42:07+00",2.8,3.8,,80.9,-92,28,-23,1019.91,80.4,0
"2018-09-07 02:47:07+00",2.7,3.7,,81,-89,24,-27,1019.9,80.3,0
"2018-09-07 02:52:07+00",2.7,3.7,,81.1,-107,-46,-9,1019.85,80.2,0
"2018-09-07 02:57:07+00",2.9,3.9,,81,-91,-76,-8,1019.81,80.2,0
"2018-09-07 03:02:07+00",3.9,4.9,,80.9,-63,-88,-2,1019.74,80.2,0
"2018-09-07 03:07:07+00",4.7,5.7,,80.9,-152,-147,-15,1019.65,80.1,0
"2018-09-07 03:12:07+00",4.0,5.0,,80.9,-137,-114,-23,1019.69,80,0
"2018-09-07 03:17:07+00",3.3,4.3,,80.7,-63,-91,-7,1019.65,79.9,0
"2018-09-07 03:22:07+00",4.3,5.3,,80.7,-43,-41,-15,1019.48,79.8,0
"2018-09-07 03:27:07+00",5.0,6.0,,80.8,-120,-163,-34,1019.67,79.6,0
"2018-09-07 03:32:07+00",5.5,6.5,,80.8,-125,-236,-49,1019.55,79.6,0
"2018-09-07 03:37:07+00",5.4,6.4,,80.8,-136,-215,-47,1019.44,79.6,0
"2018-09-07 03:42:07+00",6.3,7.3,,80.8,-111,-215,-51,1019.48,79.5,0
"2018-09-07 03:47:07+00",6.3,7.3,,80.7,-44,-111,-12,1019.5,79.3,0
"2018-09-07 03:52:07+00",6.3,7.3,,80.6,-78,-164,-28,1019.51,79.3,0
"2018-09-07 03:57:07+00",7.7,8.7,,80.7,-86,-94,3,1019.5,79.3,0
"2018-09-07 04:02:07+00",4.4,6.4,,80.5,-86,-111,-26,1019.48,79.3,0
"2018-09-07 04:07:07+00",4.8,5.8,,80.3,-17,-44,-13,1019.47,79.3,0
"2018-09-07 04:12:07+00",5.8,6.8,,80.1,-66,-164,-21,1019.41,79.2,0
"2018-09-07 04:17:07+00",6.2,7.2,,80.1,-105,-254,-56,1019.36,79.2,0
"2018-09-07 04:22:07+00",4.9,5.9,,80,-41,-184,-36,1019.36,79.2,0
"2018-09-07 04:27:07+00",5.6,7.6,,79.9,-9,-231,-34,1019.34,79.2,0
"2018-09-07 04:32:07+00",7.2,8.2,,79.9,-29,-311,-61,1019.28,79.3,0
"2018-09-07 04:37:07+00",9.2,10.2,,79.9,-104,-369,-78,1019.23,79.3,0
"2018-09-07 04:42:07+00",8.3,10.3,,79.8,-127,-343,-92,1019.19,79.3,0
"2018-09-07 04:47:07+00",6.6,7.6,,79.9,-125,-286,-45,1019.28,79.3,0
"2018-09-07 04:52:07+00",6.8,7.8,,79.8,-102,-274,-67,1019.18,79.2,0
"2018-09-07 04:57:07+00",7.1,10.1,,79.8,-117,-303,-80,1019.06,79.2,0
"2018-09-07 05:02:07+00",5.4,6.4,,79.7,-138,-232,-69,1019.01,79.2,0
"2018-09-07 05:07:07+00",5.9,6.9,,79.7,-181,-265,-60,1018.95,79.2,0
"2018-09-07 05:12:07+00",6.7,8.7,,79.8,-171,-307,-43,1018.97,79.2,0
"2018-09-07 05:17:07+00",7.8,9.8,,79.8,-242,-317,-37,1018.87,79.2,0
"2018-09-07 05:22:07+00",10.0,12.0,,79.8,-320,-355,-68,1018.9,79.2,0
"2018-09-07 05:27:07+00",12.7,15.7,,79.9,-397,-407,-69,1018.9,79.3,0
"2018-09-07 05:32:07+00",10.7,12.7,,79.9,-322,-472,-83,1018.86,79.3,0
"2018-09-07 05:37:07+00",9.6,11.6,,79.8,-293,-386,-60,1018.78,79.3,0
"2018-09-07 05:42:07+00",9.2,12.2,,79.7,-280,-327,-63,1018.81,79.3,0
"2018-09-07 05:47:07+00",8.1,9.1,,79.6,-230,-351,-79,1018.8,79.2,0
"2018-09-07 05:52:07+00",7.2,8.2,,79.5,-206,-341,-75,1018.72,79.2,0
"2018-09-07 05:57:07+00",6.8,7.8,,79.4,-203,-282,-70,1018.76,79.1,0
"2018-09-07 06:02:07+00",7.1,8.1,,79.4,-219,-269,-77,1018.81,79,0
"2018-09-07 06:07:07+00",6.1,7.1,,79.4,-181,-224,-55,1018.88,79,0
"2018-09-07 06:12:07+00",5.9,6.9,,79.3,-177,-185,-53,1018.85,79,0
"2018-09-07 06:17:07+00",8.0,9.0,,79.3,-245,-218,-71,1018.83,78.9,0
"2018-09-07 06:22:07+00",8.3,10.3,,79.4,-285,-179,-60,1018.87,78.9,0
"2018-09-07 06:27:07+00",6.5,7.5,,79.4,-221,-158,-38,1018.76,78.9,0
"2018-09-07 06:32:07+00",8.3,9.3,,79.4,-315,-94,-50,1018.73,78.9,0
"2018-09-07 06:37:07+00",6.9,7.9,,79.4,-267,-48,-39,1018.68,78.9,0
"2018-09-07 06:42:07+00",7.3,8.3,,79.2,-288,-31,-47,1018.65,78.8,0
"2018-09-07 06:47:07+00",7.4,8.4,,78.8,-287,-8,-54,1018.67,78.7,0
"2018-09-07 06:52:07+00",6.6,6.6,,78.7,-251,7,-51,1018.62,78.5,0
"2018-09-07 06:57:07+00",5.9,6.9,,78.7,-224,42,-44,1018.74,78.4,0
"2018-09-07 07:02:07+00",5.3,5.3,,78.5,-107,146,-36,1018.73,78.3,0
"2018-09-07 07:07:07+00",5.5,6.5,,77.8,-143,171,-28,1018.68,77.8,0
"2018-09-07 07:12:07+00",6.3,7.3,,77,-23,247,-50,1018.67,77.3,0
"2018-09-07 07:17:07+00",6.4,7.4,,76.4,-10,255,-44,1018.73,76.9,0
"2018-09-07 07:22:07+00",6.4,7.4,,76.1,-52,232,-54,1018.59,76.5,0
"2018-09-07 07:27:07+00",6.2,6.2,,76,-83,207,-54,1018.63,76.3,0
"2018-09-07 07:32:07+00",5.1,6.1,,76,-62,167,-45,1018.63,76,0
"2018-09-07 07:37:07+00",5.5,6.5,,76,-60,176,-49,1018.61,75.9,0
"2018-09-07 07:42:07+00",6.7,6.7,,76,-72,214,-60,1018.69,75.8,0
"2018-09-07 07:47:07+00",7.8,8.8,,75.6,-85,304,-46,1018.75,75.5,0
"2018-09-07 07:52:07+00",6.2,7.2,,75.2,-28,220,-50,1018.72,75.2,0
"2018-09-07 07:57:07+00",6.2,7.2,,74.8,-20,240,-26,1018.73,75,0
"2018-09-07 08:02:07+00",6.1,6.1,,74.7,-16,219,-55,1018.65,74.8,0
"2018-09-07 08:07:07+00",6.9,7.9,,74.7,-4,255,-65,1018.68,74.7,0
"2018-09-07 08:12:07+00",6.3,7.3,,74.7,-27,217,-64,1018.78,74.6,0
"2018-09-07 08:17:07+00",7.7,8.7,,74.6,-70,269,-68,1018.78,74.5,0
"2018-09-07 08:22:07+00",5.4,5.4,,74.6,-24,176,-53,1018.88,74.5,0
"2018-09-07 08:27:07+00",7.0,8.0,,74.6,-12,245,-80,1019.03,74.4,0
"2018-09-07 08:32:07+00",6.0,7.0,,74.6,35,226,-45,1018.87,74.3,0
"2018-09-07 08:37:07+00",6.6,7.6,,74.7,-91,215,-55,1018.88,74.4,0
"2018-09-07 08:42:07+00",8.8,9.8,,74.7,-78,319,-81,1018.86,74.4,0
"2018-09-07 08:47:07+00",6.9,8.9,,74.5,-50,244,-59,1018.98,74.3,0
"2018-09-07 08:52:07+00",6.8,7.8,,74.5,7,252,-74,1018.83,74.2,0
"2018-09-07 08:57:07+00",7.7,8.7,,74.5,-6,283,-85,1018.93,74.2,0
"2018-09-07 09:02:07+00",9.0,10.0,,74.6,-14,339,-94,1018.91,74.2,0
"2018-09-07 09:07:07+00",8.4,9.4,,74.5,16,322,-82,1018.91,74.2,0
"2018-09-07 09:12:07+00",8.0,9.0,,74.5,27,298,-80,1019.02,74.1,0
"2018-09-07 09:17:07+00",6.9,8.9,,74.6,16,271,-47,1018.98,74.2,0
"2018-09-07 09:22:07+00",6.3,7.3,,74.6,51,227,-48,1018.91,74.2,0
"2018-09-07 09:27:07+00",6.0,7.0,,74.7,58,211,-58,1018.89,74.2,0
"2018-09-07 09:32:07+00",5.6,6.6,,74.6,22,198,-50,1018.96,74.2,0
"2018-09-07 09:37:07+00",4.9,5.9,,74.6,81,150,-40,1018.99,74.2,0
"2018-09-07 09:42:07+00",5.2,7.2,,74.6,61,167,-40,1018.94,74.2,0
"2018-09-07 09:47:07+00",5.7,6.7,,74.7,84,187,-52,1018.98,74.2,0
"2018-09-07 09:52:07+00",5.8,6.8,,74.7,3,194,-58,1019.11,74.2,0
"2018-09-07 09:57:07+00",6.7,7.7,,74.8,59,229,-68,1019.04,74.2,0
"2018-09-07 10:02:07+00",5.4,6.4,,74.9,109,161,-39,1019,74.3,0
"2018-09-07 10:07:07+00",6.6,7.6,,75,98,218,-63,1018.96,74.4,0
"2018-09-07 10:12:07+00",5.4,6.4,,75,78,187,-36,1019.1,74.4,0
"2018-09-07 10:17:07+00",6.3,7.3,,75.1,64,218,-51,1018.99,74.5,0
"2018-09-07 10:22:07+00",7.0,8.0,,75.2,80,245,-49,1019.02,74.5,0
"2018-09-07 10:27:07+00",6.4,8.4,,75.3,66,247,-16,1019.13,74.7,0
"2018-09-07 10:32:07+00",6.8,7.8,,75.3,63,278,3,1019.2,74.7,0
"2018-09-07 10:37:07+00",4.5,5.5,,75.3,69,163,14,1019.2,74.8,0
"2018-09-07 10:42:07+00",6.2,7.2,,75.2,2,261,9,1019.25,74.8,0
"2018-09-07 10:47:07+00",7.3,8.3,,75,5,310,10,1019.3,74.7,0
"2018-09-07 10:52:07+00",6.8,7.8,,74.9,4,290,13,1019.37,74.6,0
"2018-09-07 10:57:07+00",7.3,8.3,,74.9,-21,310,6,1019.31,74.7,0
"2018-09-07 11:02:07+00",5.5,6.5,,75,-1,234,10,1019.31,74.8,0.4
"2018-09-07 11:07:07+00",6.6,6.6,,75.2,24,276,4,1019.31,74.9,2.7
"2018-09-07 11:12:07+00",7.3,8.3,,75.4,52,299,4,1019.3,75.2,10.5
"2018-09-07 11:17:07+00",7.6,8.6,,75.6,54,316,12,1019.31,75.5,14.3
"2018-09-07 11:22:07+00",7.2,8.2,,75.8,59,300,5,1019.35,75.7,14.9
"2018-09-07 11:27:07+00",5.7,7.7,,76,9,242,29,1019.31,76.1,26.2
"2018-09-07 11:32:07+00",7.6,9.6,,76,63,315,-4,1019.33,76.2,22.9
"2018-09-07 11:37:07+00",9.4,11.4,,76,72,390,-3,1019.25,76.3,31.8
"2018-09-07 11:42:07+00",7.8,9.8,,76.1,85,309,4,1019.26,76.4,22.8
"2018-09-07 11:47:07+00",8.7,10.7,,76.2,88,359,8,1019.3,76.6,29.6
"2018-09-07 11:52:07+00",9.2,11.2,,76.5,202,338,2,1019.32,76.8,30.6
"2018-09-07 11:57:07+00",10.8,12.8,,76.6,236,400,1,1019.29,77,25.5
"2018-09-07 12:02:07+00",9.4,11.4,,76.7,215,340,11,1019.36,77.1,33.4
"2018-09-07 12:07:07+00",7.6,11.6,,76.8,163,263,26,1019.37,77.2,45.6
"2018-09-07 12:12:07+00",10.1,12.1,,76.9,189,380,2,1019.35,77.4,61
"2018-09-07 12:17:07+00",11.5,13.5,,77.1,248,414,-6,1019.3,77.8,98.9
"2018-09-07 12:22:07+00",7.5,10.5,,77.6,112,291,30,1019.27,78.5,113.8
"2018-09-07 12:27:07+00",10.5,12.5,,77.7,169,404,2,1019.22,79,167.8
"2018-09-07 12:32:07+00",8.5,10.5,,77.9,179,302,19,1019.22,79.5,150.2
"2018-09-07 12:37:07+00",8.8,10.8,,77.8,156,335,15,1019.17,79.7,138.4
"2018-09-07 12:42:07+00",9.7,11.7,,78,152,374,17,1019.16,80.1,161.9
"2018-09-07 12:47:07+00",8.5,10.5,,78.1,162,309,28,1019.09,80.2,143.8
"2018-09-07 12:52:07+00",10.1,13.1,,77.9,235,358,11,1019.19,80.1,140.8
"2018-09-07 12:57:07+00",11.0,13.0,,78,288,361,13,1019.14,80.2,138.3
"2018-09-07 13:02:07+00",11.0,13.0,,78,252,404,2,1019.21,80.1,160.1
"2018-09-07 13:07:07+00",13.9,15.9,,78,345,488,-13,1019.25,79.9,84.9
"2018-09-07 13:12:07+00",10.1,12.1,,78,220,364,11,1019.3,79.7,90.6
"2018-09-07 13:17:07+00",10.1,12.1,,78,316,286,27,1019.3,79.7,127.8
"2018-09-07 13:22:07+00",11.5,13.5,,77.9,246,418,11,1019.37,79.8,173.1
"2018-09-07 13:27:07+00",13.6,14.6,,78,353,451,-4,1019.32,80,117.3
"2018-09-07 13:32:07+00",12.4,14.4,,78.2,300,431,8,1019.29,80.1,177.8
"2018-09-07 13:37:07+00",13.3,14.3,,78.1,427,367,-1,1019.36,80.5,211
"2018-09-07 13:42:07+00",11.3,12.3,,78.2,423,262,25,1019.43,80.5,81.3
"2018-09-07 13:47:07+00",10.2,12.2,,78.2,381,230,21,1019.44,80.5,245.9
"2018-09-07 13:52:07+00",11.6,12.6,,78.2,407,297,30,1019.4,80.9,227.9
"2018-09-07 13:57:07+00",13.8,15.8,,78.2,439,398,1,1019.37,81,194.1
"2018-09-07 14:02:07+00",15.5,16.5,,77.9,495,436,7,1019.37,80.8,225.2
"2018-09-07 14:07:07+00",13.9,15.9,,78,440,390,14,1019.45,80.5,176.3
"2018-09-07 14:12:07+00",14.7,17.7,,78.1,458,426,-1,1019.45,80.7,228.2
"2018-09-07 14:17:07+00",14.0,17.0,,78.3,369,471,27,1019.46,81,236.1
"2018-09-07 14:22:07+00",13.0,15.0,,78.3,350,425,28,1019.58,80.9,291.2
"2018-09-07 14:27:07+00",14.0,15.0,,78.3,439,398,29,1019.65,81.2,197.4
"2018-09-07 14:32:07+00",14.1,16.1,,78.2,405,424,-2,1019.59,81,187.7
"2018-09-07 14:37:07+00",12.9,14.9,,78.3,379,391,28,1019.72,80.7,154.1
"2018-09-07 14:42:07+00",14.1,16.1,,78.1,388,447,9,1019.78,80.4,165
"2018-09-07 14:47:07+00",14.6,16.6,,78.2,403,469,3,1019.77,80.7,280.2
"2018-09-07 14:52:07+00",14.4,17.4,,78.6,434,433,7,1019.79,81.4,374.5
"2018-09-07 14:57:07+00",15.5,16.5,,78.6,390,535,10,1019.77,81.7,330.2
"2018-09-07 15:02:07+00",13.3,15.3,,79.2,364,420,24,1019.77,82.1,366.2
"2018-09-07 15:07:07+00",14.7,16.7,,79.2,404,467,19,1019.74,82.5,367.1
"2018-09-07 15:12:07+00",15.3,17.3,,78.7,460,444,1,1019.83,82.4,406.6
"2018-09-07 15:17:07+00",14.9,15.9,,78.7,528,390,21,1019.77,82.4,365.4
"2018-09-07 15:22:07+00",16.1,18.1,,78.8,509,456,-3,1019.83,82.3,244.5
"2018-09-07 15:27:07+00",16.2,17.2,,78.8,436,535,7,1019.78,81.8,213
"2018-09-07 15:32:07+00",15.6,17.6,,78.6,478,457,3,1019.81,81.6,305
"2018-09-07 15:37:07+00",15.7,17.7,,78.5,576,393,16,1019.76,81.7,307.5
"2018-09-07 15:42:07+00",17.0,19.0,,78.5,647,400,11,1019.78,82,405.6
"2018-09-07 15:47:07+00",16.2,18.2,,78.6,492,471,13,1019.78,82.3,463.4
"2018-09-07 15:52:07+00",17.0,19.0,,78.3,503,501,-5,1019.77,82.1,256.6
"2018-09-07 15:57:07+00",15.4,17.4,,78.6,435,485,5,1019.75,81.7,221.8
"2018-09-07 16:02:07+00",14.4,17.4,,78.7,509,379,22,1019.73,81.4,176.2
"2018-09-07 16:07:07+00",17.8,19.8,,78.5,577,500,-2,1019.74,81.2,264.8
"2018-09-07 16:12:07+00",16.0,18.0,,78.4,563,412,25,1019.72,81.1,222
"2018-09-07 16:17:07+00",15.7,17.7,,78.5,514,432,16,1019.65,81.4,439.1
"2018-09-07 16:22:07+00",15.7,18.7,,78.8,616,333,27,1019.52,82.2,388.3
"2018-09-07 16:27:07+00",15.9,17.9,,78.7,588,391,31,1019.51,82,304.9
"2018-09-07 16:32:07+00",17.3,19.3,,78.6,557,487,17,1019.54,82.3,459.5
"2018-09-07 16:37:07+00",14.9,16.9,,78.8,553,370,25,1019.45,82.5,486.7
"2018-09-07 16:42:07+00",15.1,17.1,,78.9,528,386,52,1019.48,83,316.3
"2018-09-07 16:47:07+00",15.3,17.3,,78.7,465,458,42,1019.48,82.4,247.9
"2018-09-07 16:52:07+00",17.9,20.9,,78.4,638,444,9,1019.48,82,277.4
"2018-09-07 16:57:07+00",16.6,18.6,,78.3,649,366,17,1019.48,82,351.7
"2018-09-07 17:02:07+00",16.8,19.8,,78.7,643,377,14,1019.41,82.2,181
"2018-09-07 17:07:07+00",15.7,18.7,,78.7,650,282,53,1019.39,82.2,481.4
"2018-09-07 17:12:07+00",17.3,19.3,,78.5,670,387,34,1019.33,82.2,351.1
"2018-09-07 17:17:07+00",17.5,19.5,,78.3,674,387,13,1019.12,82.3,438.3
"2018-09-07 17:22:07+00",17.1,21.1,,78.8,714,309,22,1018.99,82.7,479.6
"2018-09-07 17:27:07+00",18.1,20.1,,78.7,744,348,25,1019.01,82.9,445.5
"2018-09-07 17:32:07+00",17.0,21.0,,78.9,681,339,32,1019.11,83.2,487.8
"2018-09-07 17:37:07+00",17.4,19.4,,78.8,684,362,15,1019.18,83,490.7
"2018-09-07 17:42:07+00",15.7,17.7,,78.7,628,318,11,1019.19,83,415.9
"2018-09-07 17:47:07+00",16.0,18.0,,78.8,661,281,46,1019.18,83.7,448.4
"2018-09-07 17:52:07+00",16.1,18.1,,78.8,573,397,62,1019.16,83.5,388.8
"2018-09-07 17:57:07+00",16.6,18.6,,78.3,580,432,-2,1018.98,82.6,137.2
"2018-09-07 18:02:07+00",15.6,17.6,,78.3,589,361,11,1018.99,81.5,114.1
"2018-09-07 18:07:07+00",16.4,19.4,,78.3,703,257,18,1018.97,81.1,127
"2018-09-07 18:12:07+00",16.6,18.6,,78.1,646,358,30,1018.92,80.9,172.9
"2018-09-07 18:17:07+00",15.9,17.9,,78.2,602,370,39,1018.72,80.6,98.7
"2018-09-07 18:22:07+00",16.1,18.1,,78.1,702,239,31,1018.76,80.4,75.7
"2018-09-07 18:27:07+00",14.4,16.4,,78,593,251,31,1018.81,80.1,70.3
"2018-09-07 18:32:07+00",15.2,17.2,,78,631,270,19,1018.79,80,75.2
"2018-09-07 18:37:07+00",14.6,18.6,,77.9,604,255,37,1018.52,79.8,69.5
"2018-09-07 18:42:07+00",15.0,18.0,,77.9,618,277,13,1018.48,79.6,61.2
"2018-09-07 18:47:07+00",15.2,17.2,,78,584,346,6,1018.51,79.5,56.8
"2018-09-07 18:52:07+00",14.2,16.2,,77.9,562,285,10,1018.62,79.4,57.8
"2018-09-07 18:57:07+00",13.0,14.0,,77.9,532,244,8,1018.65,79.4,56.1
"2018-09-07 19:02:07+00",12.7,15.7,,77.9,493,271,41,1018.46,79.4,52.2
"2018-09-07 19:07:07+00",13.2,16.2,,77.8,562,217,19,1018.4,79.3,45.8
"2018-09-07 19:12:07+00",11.1,13.1,,77.9,472,169,41,1018.36,79.2,42.3
"2018-09-07 19:17:07+00",13.3,14.3,,77.8,579,139,14,1018.5,79.3,30.9
"2018-09-07 19:22:07+00",11.7,13.7,,77.9,503,167,29,1018.25,79.2,30.1
"2018-09-07 19:27:07+00",9.8,11.8,,77.8,415,150,43,1018.3,79.1,20.6
"2018-09-07 19:32:07+00",13.5,15.5,,77.6,552,250,9,1018.24,78.8,15.2
"2018-09-07 19:37:07+00",15.7,16.7,,77.4,584,379,6,1017.92,78.4,11.4
"2018-09-07 19:42:07+00",14.4,15.4,,77.4,588,264,0,1018.11,78.3,7
"2018-09-07 19:47:07+00",13.1,15.1,,77.4,492,308,20,1018.23,78.3,7.1
"2018-09-07 19:52:07+00",14.6,16.6,,77.4,430,437,19,1018.04,78.2,11.7
"2018-09-07 19:57:07+00",12.3,14.3,,77.5,348,384,6,1018.1,78.2,21.8
"2018-09-07 20:02:07+00",14.3,16.3,,77.6,545,327,32,1017.97,78.2,30.6
"2018-09-07 20:07:07+00",15.6,17.6,,77.5,509,433,2,1017.87,78.1,33.5
"2018-09-07 20:12:07+00",16.0,18.0,,77.6,516,449,15,1017.88,78.1,43.4
"2018-09-07 20:17:07+00",15.9,16.9,,77.4,454,485,-3,1017.93,77.9,51
"2018-09-07 20:22:07+00",15.3,17.3,,77.5,509,418,18,1017.95,77.8,72.9
"2018-09-07 20:27:07+00",16.1,17.1,,77.6,535,441,16,1017.95,77.9,55.2
"2018-09-07 20:32:07+00",14.5,16.5,,77.6,483,398,24,1018.08,77.8,36.5
"2018-09-07 20:37:07+00",15.3,17.3,,77.6,455,447,1,1018.1,77.8,37.9
"2018-09-07 20:42:07+00",14.8,16.8,,77.7,538,374,36,1018.17,77.9,41.3
"2018-09-07 20:47:07+00",15.9,17.9,,77.6,492,448,30,1018.05,77.9,43.1
"2018-09-07 20:52:07+00",15.6,19.6,,77.5,554,402,44,1018,78,69.7
"2018-09-07 20:57:07+00",16.5,18.5,,77.5,595,424,21,1017.92,78.1,62.8
"2018-09-07 21:02:07+00",17.2,21.2,,77.5,623,443,33,1017.61,78.2,60.4
"2018-09-07 21:07:07+00",16.3,20.3,,77.4,628,365,50,1017.48,78.1,53.9
"2018-09-07 21:12:07+00",19.5,21.5,,77.4,660,536,17,1017.27,78,51.2
"2018-09-07 21:17:07+00",16.3,20.3,,77.4,652,338,48,1017.27,78.3,83.6
"2018-09-07 21:22:07+00",19.1,22.1,,77.1,665,501,29,1017.28,78.2,68.3
"2018-09-07 21:27:07+00",18.2,21.2,,76.9,643,480,24,1017.55,78.1,77.1
"2018-09-07 21:32:07+00",17.7,20.7,,76.9,525,517,11,1017.55,78.1,103.7
"2018-09-07 21:37:07+00",14.3,16.3,,77.1,567,282,6,1017.56,78.2,59.1
"2018-09-07 21:42:07+00",13.6,15.6,,76.8,589,211,31,1017.7,78.1,51.7
"2018-09-07 21:47:07+00",12.9,14.9,,76.8,490,295,39,1017.73,78,32.2
"2018-09-07 21:52:07+00",12.5,13.5,,76.5,481,273,22,1017.87,77.6,18.2
"2018-09-07 21:57:07+00",15.0,16.0,,76.3,622,276,12,1017.77,77.4,5.3
"2018-09-07 22:02:07+00",14.0,16.0,,76.2,592,224,17,1017.69,77.2,12.1
"2018-09-07 22:07:07+00",12.2,15.2,,76.3,513,211,28,1017.79,77.1,21.2
"2018-09-07 22:12:07+00",14.0,16.0,,76.1,589,244,31,1017.87,77,15.3
"2018-09-07 22:17:07+00",14.4,17.4,,76.1,600,251,20,1017.8,77,11.1
"2018-09-07 22:22:07+00",16.1,18.1,,76.1,607,376,10,1017.8,76.9,14.8
"2018-09-07 22:27:07+00",15.3,18.3,,76.1,604,327,39,1017.69,76.8,10
"2018-09-07 22:32:07+00",15.3,18.3,,76.1,585,348,33,1017.48,76.7,3.4
"2018-09-07 22:37:07+00",14.0,16.0,,76.1,563,278,49,1017.54,76.6,0
"2018-09-07 22:42:07+00",16.2,18.2,,76,648,326,11,1017.42,76.5,0
"2018-09-07 22:47:07+00",15.4,17.4,,76,610,311,43,1017.39,76.4,0
"2018-09-07 22:52:07+00",18.7,21.7,,75.8,724,414,32,1017.33,76.2,0
"2018-09-07 22:57:07+00",16.9,19.9,,75.8,658,382,47,1017.28,76,0
"2018-09-07 23:02:07+00",16.4,19.4,,75.9,640,358,18,1017.29,76,0
"2018-09-07 23:07:07+00",16.0,20.0,,75.9,612,393,-7,1017.47,76,0
"2018-09-07 23:12:07+00",16.9,20.9,,75.8,650,416,12,1017.46,76,0
"2018-09-07 23:17:07+00",17.7,21.7,,75.7,645,466,12,1017.22,75.8,0
"2018-09-07 23:22:07+00",19.7,21.7,,75.7,719,500,22,1017.2,75.7,0
"2018-09-07 23:27:07+00",16.9,18.9,,75.8,561,468,48,1017.43,75.8,0
"2018-09-07 23:32:07+00",19.8,21.8,,75.8,688,529,13,1017.38,75.8,0
"2018-09-07 23:37:07+00",17.1,19.1,,75.9,629,423,45,1017.58,75.9,0
"2018-09-07 23:42:07+00",20.4,22.4,,75.8,719,540,22,1017.66,75.9,0
"2018-09-07 23:47:07+00",18.7,20.7,,75.7,696,466,35,1017.83,75.8,0
"2018-09-07 23:52:07+00",19.0,22.0,,75.4,752,420,-2,1017.87,75.6,0
"2018-09-07 23:57:07+00",17.6,20.6,,75.5,701,383,5,1017.98,75.6,0
